DW0108 Weather Reports


Display with metric or nautical units.
time (UTC)temp
F
wind
direction
speed
MPH
gust
MPH
rain 1hr
in
rain 24hr
in
rain mn
in
humidity
%
barometer
mb
20260509085822 70 150 2.0 5.0 0.00 0.00 0.01 91 1007.4
20260509084807 70 153 3.0 7.0 0.00 0.00 0.01 91 1007.4
20260509081824 70 162 4.0 9.0 0.00 0.00 0.01 91 1008.4
20260509080847 70 155 3.0 8.0 0.00 0.00 0.01 92 1008.8
20260509075824 70 176 1.0 4.0 0.00 0.00 0.01 92 1009.1
20260509074835 70 126 1.0 3.0 0.00 0.00 0.01 92 1009.1
20260509073806 70 125 1.0 2.0 0.00 0.00 0.01 92 1009.4
20260509072828 70 129 1.0 2.0 0.00 0.00 0.01 91 1010.4
20260509070815 70 108 0.0 2.0 0.00 0.00 0.01 91 1011.8
20260509065836 70 305 2.0 6.0 0.00 0.00 0.01 93 1012.5
20260509063808 70 304 0.0 1.0 0.00 0.00 0.01 93 1012.8
20260509062826 70 293 0.0 1.0 0.00 0.00 0.01 94 1012.1
20260509061825 70 319 1.0 2.0 0.00 0.00 0.01 94 1012.1
20260509060823 69 314 1.0 2.0 0.00 0.00 0.01 94 1012.1
20260509055804 69 265 0.0 1.0 0.00 0.00 0.01 94 1011.8
20260509054818 69 197 0.0 1.0 0.00 0.00 0.01 94 1011.8
20260509053835 69 319 1.0 2.0 0.00 0.00 0.01 94 1011.5
20260509052843 69 182 1.0 2.0 0.00 0.00 0.01 94 1011.8
20260509051828 70 45 0.0 1.0 0.00 0.00 0.01 92 1011.5
20260509050823 70 125 0.0 0.0 0.00 0.00 0.01 92 1010.8
20260509045848 70 134 0.0 2.0 0.00 0.00 1.36 92 1010.8
20260509044823 70 135 0.0 1.0 0.00 0.00 1.35 92 1010.8
20260509043835 70 74 0.0 1.0 0.00 0.00 1.34 92 1010.8
20260509042847 70 113 0.0 1.0 0.00 0.00 1.33 92 1011.1
20260509041834 70 112 0.0 1.0 0.00 0.00 1.32 92 1010.8
20260509040815 71 46 0.0 1.0 0.00 0.00 1.31 91 1011.1
20260509035832 71 68 1.0 1.0 0.00 0.00 1.30 90 1010.8
20260509034824 72 123 1.0 2.0 0.00 0.00 1.29 89 1010.4
20260509033838 72 116 0.0 2.0 0.00 0.00 1.28 89 1010.4
20260509031828 72 136 1.0 2.0 0.00 0.00 1.26 88 1009.8
20260509030837 73 153 1.0 3.0 0.00 0.00 1.25 87 1009.8
20260509025844 73 116 0.0 2.0 0.00 0.00 1.24 87 1009.8
20260509024844 73 148 2.0 4.0 0.00 0.00 1.23 87 1008.8
20260509022807 73 153 2.0 4.0 0.00 0.00 1.21 86 1009.1
20260509021842 73 148 2.0 3.0 0.00 0.00 1.20 86 1009.1
20260509020811 73 111 0.0 2.0 0.00 0.00 1.19 86 1009.1
20260509015843 73 118 1.0 2.0 0.00 0.00 1.18 86 1009.1
20260509014842 73 118 0.0 1.0 0.00 0.00 1.17 86 1009.4
20260509013805 73 46 0.0 1.0 0.00 0.00 1.16 86 1009.1
20260509012847 73 65 0.0 1.0 0.00 0.00 1.15 85 1009.4
20260509010810 74 138 1.0 2.0 0.00 0.00 1.13 83 1008.8
20260509004826 74 144 1.0 2.0 0.00 0.00 1.11 83 1008.8
20260509003813 74 146 1.0 3.0 0.00 0.00 1.10 82 1008.4
20260509002830 74 139 2.0 3.0 0.00 0.00 1.09 82 1008.4
20260509001833 74 137 1.0 3.0 0.00 0.00 1.08 82 1008.8
20260509000807 74 137 1.0 3.0 0.00 0.00 1.07 82 1008.8
20260508233832 74 146 1.0 4.0 0.00 0.00 1.04 81 1009.1
20260508232822 74 152 1.0 3.0 0.00 0.00 1.03 81 1009.1
20260508231836 74 132 1.0 3.0 0.00 0.00 1.02 81 1009.1
20260508225821 74 154 2.0 5.0 0.00 0.00 1.00 80 1009.1
20260508224825 73 167 3.0 7.0 0.00 0.00 9.94 81 1009.1
20260508223825 74 174 2.0 4.0 0.00 0.00 9.85 79 1009.1
20260508222847 74 170 3.0 7.0 0.00 0.00 9.75 80 1009.1
20260508221816 73 157 3.0 6.0 0.00 0.00 9.65 81 1009.1
20260508220812 73 166 3.0 5.0 0.00 0.00 9.55 81 1009.1
20260508215846 72 146 3.0 5.0 0.00 0.00 9.44 81 1009.4
20260508214832 72 157 2.0 6.0 0.00 0.00 9.35 80 1009.1
20260508213808 72 153 2.0 5.0 0.00 0.00 9.25 79 1009.4
20260508212830 73 151 3.0 5.0 0.00 0.00 9.15 78 1009.1
20260508211845 72 158 2.0 5.0 0.00 0.00 9.05 79 1009.8
20260508210835 72 151 4.0 7.0 0.00 0.00 8.94 80 1010.1
20260508205826 72 156 2.0 4.0 0.00 0.00 8.85 78 1010.4
20260508204820 72 147 3.0 7.0 0.00 0.00 8.75 76 1010.8
20260508203820 72 165 2.0 4.0 0.00 0.00 8.65 77 1010.8
20260508202840 72 134 2.0 5.0 0.00 0.00 8.55 77 1010.4
20260508201846 71 116 2.0 8.0 0.00 0.00 8.44 79 1010.4
20260508200816 70 77 1.0 4.0 0.00 0.00 8.35 78 1009.8
20260508195823 71 130 1.0 4.0 0.00 0.00 8.25 76 1011.1
20260508194813 71 136 2.0 6.0 0.00 0.00 8.15 76 1011.1
20260508193842 71 166 3.0 6.0 0.00 0.00 8.05 75 1012.1
20260508192812 71 162 2.0 5.0 0.00 0.00 7.95 74 1011.8
20260508191811 71 154 1.0 5.0 0.00 0.00 7.85 74 1011.8
20260508190827 72 156 2.0 5.0 0.00 0.00 7.75 73 1011.8
20260508185811 71 140 2.0 5.0 0.00 0.00 7.65 73 1011.8
20260508184846 72 152 3.0 5.0 0.00 0.00 7.55 72 1011.8
20260508183819 72 156 5.0 9.0 0.00 0.00 7.45 71 1012.5
20260508182821 72 157 3.0 6.0 0.00 0.00 7.35 71 1012.1
20260508180810 72 159 2.0 6.0 0.00 0.00 7.15 70 1012.1
20260508175823 72 160 2.0 5.0 0.00 0.00 7.05 69 1012.5
20260508174824 73 132 1.0 4.0 0.00 0.00 6.95 69 1012.1
20260508173830 71 131 2.0 6.0 0.00 0.00 6.85 71 1012.5
20260508172813 71 146 3.0 6.0 0.00 0.00 6.75 72 1012.8
20260508171819 70 161 3.0 6.0 0.00 0.00 6.65 71 1012.8
20260508170822 70 175 2.0 8.0 0.00 0.00 6.55 72 1013.5
20260508165807 70 145 2.0 4.0 0.00 0.00 6.45 70 1013.5
20260508164828 70 124 1.0 4.0 0.00 0.00 6.35 71 1013.2
20260508162836 70 109 1.0 4.0 0.00 0.00 6.15 71 1013.8
20260508161838 69 113 2.0 5.0 0.00 0.00 6.05 73 1013.8
20260508160837 68 145 2.0 7.0 0.00 0.00 5.95 73 1013.8
20260508155829 68 146 2.0 5.0 0.00 0.00 5.85 75 1014.2
20260508153831 66 134 2.0 4.0 0.00 0.00 5.65 76 1014.2
20260508151838 67 139 2.0 4.0 0.00 0.00 5.45 74 1014.5
20260508150808 67 145 3.0 5.0 0.00 0.00 5.35 75 1014.5
20260508145805 66 148 2.0 4.0 0.00 0.00 5.24 75 1014.8
20260508143804 67 126 1.0 4.0 0.00 0.00 5.04 75 1014.5
20260508142844 66 133 1.0 3.0 0.00 0.00 4.95 75 1014.5
20260508141847 66 111 1.0 3.0 0.00 0.00 4.84 75 1014.8
20260508140809 66 127 1.0 5.0 0.00 0.00 4.75 77 1014.8
20260508135829 65 130 1.0 3.0 0.00 0.00 4.65 77 1014.8
20260508134840 65 129 1.0 4.0 0.00 0.00 4.55 79 1015.2
20260508133809 64 114 1.0 3.0 0.00 0.00 4.45 81 1014.8
20260508132816 64 122 1.0 4.0 0.00 0.00 4.34 81 1014.8
20260508131835 63 145 2.0 3.0 0.00 0.00 4.25 83 1014.8
20260508130831 62 114 1.0 3.0 0.00 0.00 4.15 86 1014.8
20260508124812 61 67 1.0 2.0 0.00 0.00 3.95 93 1015.2
20260508123845 60 100 1.0 2.0 0.00 0.00 3.85 95 1015.2
20260508122825 60 75 0.0 2.0 0.00 0.00 3.75 95 1015.2
20260508121831 59 72 0.0 2.0 0.00 0.00 3.65 95 1015.2
20260508120811 59 131 1.0 2.0 0.00 0.00 3.55 95 1014.8
20260508115837 58 93 0.0 1.0 0.00 0.00 3.45 96 1015.2
20260508114844 58 51 1.0 2.0 0.00 0.00 3.35 95 1015.2
20260508113847 58 45 1.0 2.0 0.00 0.00 3.25 95 1014.8
20260508112847 58 87 0.0 2.0 0.00 0.00 3.15 95 1014.8
20260508111831 59 47 1.0 2.0 0.00 0.00 3.05 95 1015.2
20260508110839 59 105 1.0 2.0 0.00 0.00 2.95 95 1015.2
20260508105813 59 91 0.0 1.0 0.00 0.00 2.85 96 1014.8
20260508104840 59 78 1.0 2.0 0.00 0.00 2.75 96 1014.8
20260508103816 59 94 0.0 1.0 0.00 0.00 2.65 96 1014.8
20260508100817 60 39 0.0 2.0 0.00 0.00 2.35 95 1014.5
20260508095842 60 107 0.0 1.0 0.00 0.00 2.25 95 1014.2
20260508094844 60 79 0.0 1.0 0.00 0.00 2.15 95 1014.5
20260508093820 60 72 0.0 1.0 0.00 0.00 2.04 95 1014.5
20260508092831 60 19 1.0 2.0 0.00 0.00 1.95 95 1014.8
20260508091844 60 42 0.0 1.0 0.00 0.00 1.85 95 1014.5